[Date Prev][Date Next][Thread Prev][Thread Next] - [Date Index][Thread Index][Author Index]

2 Line ISS Keps 1-6



ISS
1 25544U 98067A   03006.13313972  .00023861  00000-0  31105-3 0  5504
2 25544  51.6350 114.2696 0004746   3.4880  69.4383 15.58575016235764


----
Via the sarex mailing list at AMSAT.ORG courtesy of AMSAT-NA.
To unsubscribe, send "unsubscribe sarex" to Majordomo@amsat.org



AMSAT Top AMSAT Home